Regional Weather Roundup
Issued by NWS Goodland, KS

Home | Current Version | Previous Version | Graphics & Text | Print | Product List | Glossary On
Versions: 1 2 3 4 5 6 7 8 9 10 11 12 13 14 15 16 17 18 19 20 21 22 23 24 25 26 27 28 29 30 31 32 33 34 35 36 37 38 39 40 41 42 43 44 45 46 47 48 49 50
000
ASUS43 KGLD 251659
RWRGLD

GOODLAND FORECAST AREA HOURLY WEATHER ROUNDUP
NATIONAL WEATHER SERVICE GOODLAND KS
1100 AM MDT SUN SEP 25 2016

...OFFICIAL OBSERVATIONS...

CITY           SKY/WX    TMP DP  RH WIND       PRES   REMARKS
GOODLAND KS    SUNNY     64  34  32 N23G31    30.38S
HILL CITY KS   SUNNY     67  45  45 N16G24    30.31F
IMPERIAL NEB   SUNNY     64  36  35 NW26G33   30.36R
MCCOOK NEB     SUNNY     69  38  32 NW22G28   30.32S
AKRON CO       SUNNY     60  34  37 N20G29    30.44F
BURLINGTON CO  SUNNY     64  34  32 N17G24    30.41S
LIMON CO       SUNNY     59  31  34 N20       30.48R
$$

...UNOFFICIAL OBSERVATIONS...

CITY           SKY/WX    TMP DP  RH WIND       PRES   REMARKS
COLBY KS       SUNNY     66  43  42 NW20      30.36F
LENORA KS        N/A     64  32  30 MISG        N/A
NORTON KS      SUNNY     68  34  28 NW21G29   30.30S
SHARON SPRINGS   N/A     65  38  36 NE18G28     N/A
KIT CARSON CO    N/A     61  35  37 MISG        N/A
$$



USA.gov is the U.S. government's official web portal to all federal, state and local government web resources and services.